TimeMDT,TemperatureF,Dew PointF,Humidity,Sea Level PressureIn,VisibilityMPH,Wind Direction,Wind SpeedMPH,Gust SpeedMPH,PrecipitationIn,Events,Conditions,WindDirDegrees,DateUTC
12:53 AM,59.0,44.1,58,29.61,10.0,West,4.6,-,N/A,,Clear,270,2013-09-18 06:53:00
1:53 AM,59.0,41.0,51,29.61,10.0,WSW,4.6,-,N/A,,Clear,250,2013-09-18 07:53:00
2:53 AM,59.0,41.0,51,29.61,10.0,WSW,4.6,-,N/A,,Clear,250,2013-09-18 08:53:00
3:53 AM,61.0,41.0,48,29.59,10.0,West,3.5,-,N/A,,Scattered Clouds,260,2013-09-18 09:53:00
4:53 AM,55.9,41.0,57,29.61,10.0,SSW,3.5,-,N/A,,Clear,210,2013-09-18 10:53:00
5:53 AM,53.1,42.1,66,29.63,10.0,WNW,3.5,-,N/A,,Clear,290,2013-09-18 11:53:00
6:53 AM,53.1,43.0,69,29.64,10.0,WNW,5.8,-,N/A,,Clear,300,2013-09-18 12:53:00
7:53 AM,54.0,44.1,69,29.65,10.0,WSW,4.6,-,N/A,,Clear,240,2013-09-18 13:53:00
8:53 AM,64.9,45.0,48,29.63,10.0,WSW,5.8,-,N/A,,Clear,250,2013-09-18 14:53:00
9:53 AM,69.1,45.0,42,29.62,10.0,WSW,10.4,-,N/A,,Clear,250,2013-09-18 15:53:00
10:53 AM,72.0,46.0,40,29.61,10.0,West,9.2,19.6,N/A,,Clear,260,2013-09-18 16:53:00
11:53 AM,73.0,46.9,39,29.62,10.0,SW,13.8,24.2,N/A,,Clear,230,2013-09-18 17:53:00
12:53 PM,73.9,46.0,37,29.61,10.0,West,16.1,24.2,N/A,,Clear,270,2013-09-18 18:53:00
1:53 PM,75.0,46.0,36,29.61,10.0,West,9.2,-,N/A,,Clear,260,2013-09-18 19:53:00
2:53 PM,75.0,43.0,32,29.60,10.0,West,12.7,20.7,N/A,,Clear,260,2013-09-18 20:53:00
3:53 PM,73.9,42.1,32,29.59,10.0,West,11.5,17.3,N/A,,Clear,260,2013-09-18 21:53:00
4:53 PM,72.0,39.9,31,29.62,10.0,West,8.1,-,N/A,,Clear,280,2013-09-18 22:53:00
5:53 PM,72.0,41.0,33,29.63,10.0,West,16.1,26.5,N/A,,Clear,280,2013-09-18 23:53:00
6:53 PM,66.9,42.1,40,29.68,10.0,WNW,6.9,-,N/A,,Clear,290,2013-09-19 00:53:00
7:53 PM,64.0,42.1,45,29.71,10.0,West,3.5,-,N/A,,Clear,280,2013-09-19 01:53:00
8:53 PM,62.1,42.1,48,29.70,10.0,Calm,Calm,-,N/A,,Clear,0,2013-09-19 02:53:00
9:53 PM,59.0,42.1,53,29.72,10.0,NNW,5.8,-,N/A,,Clear,330,2013-09-19 03:53:00
10:53 PM,55.9,44.1,64,29.74,10.0,North,6.9,-,N/A,,Clear,360,2013-09-19 04:53:00
11:53 PM,52.0,44.1,74,29.76,10.0,Calm,Calm,-,N/A,,Clear,0,2013-09-19 05:53:00